カタログに戻る

DMSP 5D-2 F13 DEB

運用中SSO
NORAD 40478·DEBRIS·🇺🇸 United States

打ち上げ Mar 24, 1995 から Vandenberg Space Force Base

Loading…

次のパス (今後24時間)

TLE

最新Source: Space-Track

元期: Sep 14, 2026, 14:19 UTC

1 40478U 95015BW  26257.59677576  .00002362  00000-0  11778-2 0  9996
2 40478  98.9985 210.2974 0064714 307.1007  52.4263 14.16813352589804

AllMySatでDMSP 5D-2 F13 DEBをリアルタイム追跡

Download on the App Store